Weather reports worldwide

Advertisment
Paharova, Sweden (2184): temperature & dewpoint: 06.12.2019 16:00:00 - 12.12.2019 16:00:00 (CET)Paharova, Sweden (2184): wind speed & gusts: 06.12.2019 16:00:00 - 12.12.2019 16:00:00 (CET)Paharova, Sweden (2184): wind direction: 06.12.2019 16:00:00 - 12.12.2019 16:00:00 (CET)Paharova, Sweden (2184): reduced air pressure: 06.12.2019 16:00:00 - 12.12.2019 16:00:00 (CET)Paharova, Sweden (2184): visibility: 06.12.2019 16:00:00 - 12.12.2019 16:00:00 (CET)Paharova, Sweden (2184): precipitation: 06.12.2019 16:00:00 - 12.12.2019 16:00:00 (CET)
Date & Time tt [°C] td [°C] ff [km/h] ff [kn] fx [km/h] fx [kn] dd ppp [hPa] vv [km] rr [mm]
12.12.2019 16:00:00 -0,4 -0,5 9 5 18 10 S 994,0 19 0,0
12.12.2019 15:00:00 -0,5 -0,6 9 5 16 9 SSE 994,1 18 0,0
12.12.2019 14:00:00 -0,6 -0,7 7 4 16 9 SSE 994,3 18 0,0
12.12.2019 13:00:00 -0,6 -0,7 8 4 18 10 SSE 994,4 26 0,0
12.12.2019 12:00:00 -0,6 -0,7 9 5 17 9 SSE 994,5 35 0,0
12.12.2019 11:00:00 -0,8 -0,9 8 5 16 9 SSE 994,7 25 0,0
12.12.2019 10:00:00 -0,9 -1,0 9 5 19 10 SSE 994,7 37 0,0
12.12.2019 09:00:00 -1,2 -1,3 8 5 16 9 SSE 994,8 10 0,0
12.12.2019 08:00:00 -1,4 -1,5 6 3 15 8 S 994,7 7 0,0
12.12.2019 07:00:00 -1,7 -1,8 8 4 16 8 SSE 994,2 14 0,0
12.12.2019 06:00:00 -2,0 -2,3 5 3 13 7 S 994,6 1,9 0,1
12.12.2019 05:00:00 -2,1 -2,4 5 3 12 7 S 994,3 7 0,0
12.12.2019 04:00:00 -1,9 -2,2 7 4 17 9 S 994,4 1,2 0,2
12.12.2019 03:00:00 -2,0 -2,3 6 4 17 9 S 994,4 1,4 0,1
12.12.2019 02:00:00 -2,1 -2,4 9 5 19 10 S 994,2 7 0,0
12.12.2019 01:00:00 -2,1 -2,2 9 5 22 12 S 993,7 0,5 0,0
12.12.2019 00:00:00 -2,5 -2,8 9 5 17 9 S 993,2 50 0,0
11.12.2019 23:00:00 -2,3 -2,6 9 5 19 10 S 992,9 50 0,0
11.12.2019 22:00:00 -2,5 -2,8 9 5 17 9 S 992,5 50 0,0
11.12.2019 21:00:00 -2,2 -2,5 4 2 13 7 S 991,2 50 0,0
11.12.2019 20:00:00 -1,6 -1,7 8 4 19 11 SSW 990,5 50 0,0
11.12.2019 19:00:00 -0,8 -0,9 7 4 20 11 SSW 988,7 50 0,0
11.12.2019 18:00:00 -0,5 -0,6 8 4 18 10 SSW 987,6 50 0,2
11.12.2019 17:00:00 -0,5 -0,6 8 4 18 10 S 986,7 1,1 1,2
11.12.2019 16:00:00 -0,5 -0,6 9 5 22 12 S 986,3 0,8 0,4
11.12.2019 15:00:00 -0,7 -0,8 10 5 23 12 S 986,2 1,9 0,4
11.12.2019 14:00:00 -0,8 -0,9 14 7 27 15 SSE 986,6 1,1 0,4
11.12.2019 13:00:00 -1,0 -1,3 14 7 33 18 SSE 987,2 1,6 0,4
11.12.2019 12:00:00 -1,4 -1,7 15 8 36 20 SSE 988,0 1,6 0,3
11.12.2019 11:00:00 -1,9 -2,3 14 8 29 16 SSE 989,0 1,7 0,3
11.12.2019 10:00:00 -2,3 -2,7 15 8 31 17 SSE 990,4 1,1 0,5
11.12.2019 09:00:00 -2,3 -2,7 15 8 29 16 SSE 991,8 1,3 0,9
11.12.2019 08:00:00 -3,1 -3,5 11 6 23 12 SE 993,1 0,5 0,4
11.12.2019 07:00:00 -3,9 -4,4 10 5 21 12 SE 994,6 0,8 0,5
11.12.2019 06:00:00 -4,4 -4,9 10 6 25 13 SE 996,5 0,5 0,3
11.12.2019 05:00:00 -3,7 -4,2 10 5 22 12 SSE 998,2 2,2 0,2
11.12.2019 04:00:00 -5,5 -6,2 7 4 16 9 SSE 1000,1 6 0,0
11.12.2019 03:00:00 -8,0 -8,9 6 3 14 8 SSE 1002,4 8 0,0
11.12.2019 02:00:00 -9,8 -11,1 5 3 9 5 SSE 1003,8 16 0,1
11.12.2019 01:00:00 -13,8 -15,6 3 1 5 3 S 1005,3 48 0,0
11.12.2019 00:00:00 -11,9 -13,1 0 0 4 2 N 1005,3 50 0,0
10.12.2019 23:00:00 -16,1 -17,9 0 0 4 2 N 1006,7 50 0,0
10.12.2019 22:00:00 -16,6 -18,3 0 0 4 2 N 1007,6 50 0,0
10.12.2019 21:00:00 -17,4 -19,3 0 0 3 2 N 1007,9 50 0,0
10.12.2019 20:00:00 -15,5 -17,2 0 0 2 1 N 1007,8 50 0,0
10.12.2019 19:00:00 -15,5 -17,0 0 0 2 1 N 1008,0 50 0,0
10.12.2019 18:00:00 -16,6 -18,4 0 0 2 1 N 1008,3 50 0,0
10.12.2019 17:00:00 -16,5 -18,4 0 0 2 1 N 1008,5 50 0,0
10.12.2019 16:00:00 -14,8 -16,3 0 0 3 1 N 1008,1 50 0,0
10.12.2019 15:00:00 -14,2 -15,7 0 0 2 1 N 1007,7 50 0,0
10.12.2019 14:00:00 -13,6 -15,0 0 0 5 3 N 1007,2 50 0,0
10.12.2019 13:00:00 -14,1 -15,7 0 0 4 2 N 1006,7 50 0,0
10.12.2019 12:00:00 -13,6 -15,0 0 0 3 1 N 1006,2 50 0,0
10.12.2019 11:00:00 -13,6 -15,2 0 0 3 1 N 1005,6 50 0,0
10.12.2019 10:00:00 -14,0 -15,6 0 0 4 2 N 1004,5 50 0,0
10.12.2019 09:00:00 -13,4 -14,8 0 0 4 2 N 1003,7 50 0,0
10.12.2019 08:00:00 -15,2 -16,9 0 0 5 3 N 1002,8 50 0,0
10.12.2019 07:00:00 -14,4 -16,1 0 0 4 2 N 1001,6 50 0,0
10.12.2019 06:00:00 -14,2 -15,7 0 0 5 3 N 1000,5 50 0,0
10.12.2019 05:00:00 -13,2 -14,6 2 1 6 3 WNW 999,4 50 0,0
10.12.2019 04:00:00 -12,2 -13,5 3 2 7 4 WNW 998,2 50 0,0
10.12.2019 03:00:00 -11,9 -13,2 3 2 7 4 WNW 996,9 50 0,0
10.12.2019 02:00:00 -11,0 -12,3 3 2 9 5 WNW 995,5 50 0,0
10.12.2019 01:00:00 -13,0 -14,4 3 2 10 6 WNW 994,3 50 0,0
10.12.2019 00:00:00 -14,4 -16,1 2 1 9 5 WNW 993,1 50 0,0
09.12.2019 23:00:00 -14,5 -16,0 3 2 9 5 WNW 992,2 50 0,0
09.12.2019 22:00:00 -15,2 -16,9 0 0 6 3 N 990,9 50 0,0
09.12.2019 21:00:00 -13,6 -15,2 4 2 9 5 WNW 989,3 50 -
09.12.2019 20:00:00 -13,0 -14,4 4 2 9 5 WNW 988,2 50 0,0
09.12.2019 19:00:00 -12,3 -13,7 3 1 5 3 WNW 987,1 50 0,0
09.12.2019 18:00:00 -11,1 -12,4 2 1 6 4 NW 985,7 50 0,0
09.12.2019 17:00:00 -9,5 -10,7 3 2 11 6 NNW 984,4 48 0,0
09.12.2019 16:00:00 -8,8 -9,9 2 1 9 5 NW 983,3 4,1 0,0
09.12.2019 15:00:00 -9,2 -10,3 3 2 12 6 NNW 982,0 34 -
09.12.2019 14:00:00 -8,3 -9,2 3 2 10 6 NW 981,0 47 0,0
09.12.2019 13:00:00 -8,1 -9,0 3 1 9 5 NNW 980,2 28 0,0
09.12.2019 12:00:00 -8,5 -9,4 3 2 10 5 NNW 979,3 16 0,0
09.12.2019 11:00:00 -7,6 -8,5 4 2 14 7 NNW 978,4 12 -
09.12.2019 10:00:00 -7,5 -8,3 5 3 17 9 N 977,7 32 0,0
09.12.2019 09:00:00 -6,7 -7,5 5 3 16 9 N 976,8 15 -
09.12.2019 08:00:00 -6,7 -7,5 6 3 14 8 N 976,2 6 0,1
09.12.2019 07:00:00 -6,4 -7,1 7 4 13 7 NNE 975,8 4,8 0,2
09.12.2019 06:00:00 -6,2 -6,9 7 4 13 7 NNE 975,5 1,6 0,3
09.12.2019 05:00:00 -6,2 -6,9 6 3 12 7 NNE 975,4 27 0,0
09.12.2019 04:00:00 -6,1 -6,8 5 3 11 6 NNE 975,6 19 0,1
09.12.2019 03:00:00 -6,1 -6,8 4 2 8 4 NNE 976,0 10 0,0
09.12.2019 02:00:00 -6,1 -6,8 4 2 11 6 NNE 976,1 11 0,0
09.12.2019 01:00:00 -6,3 -7,0 3 2 8 5 NNE 976,6 7 -
09.12.2019 00:00:00 -6,5 -7,2 4 2 6 4 NNE 976,9 4,1 0,0
08.12.2019 23:00:00 -6,8 -7,6 2 1 6 3 NE 977,6 3,5 -
08.12.2019 22:00:00 -6,9 -7,7 3 2 7 4 NE 977,9 11 -
08.12.2019 21:00:00 -6,8 -7,6 3 1 6 3 NE 978,0 3,4 0,1
08.12.2019 20:00:00 -7,2 -8,0 0 0 5 3 N 978,7 4,3 0,0
08.12.2019 19:00:00 -7,2 -8,0 3 1 8 4 N 978,5 8 0,0
08.12.2019 18:00:00 -7,3 -8,1 3 2 7 4 N 978,5 6 0,0
08.12.2019 17:00:00 -8,1 -9,0 0 0 4 2 N 979,0 14 0,0
08.12.2019 16:00:00 -8,3 -9,2 0 0 3 2 N 979,0 32 0,0
08.12.2019 15:00:00 -9,0 -10,1 0 0 3 2 N 979,8 47 0,0
08.12.2019 14:00:00 -9,6 -10,7 0 0 4 2 N 979,5 50 0,0
08.12.2019 13:00:00 -9,7 -10,8 0 0 4 2 N 979,4 50 0,0
08.12.2019 12:00:00 -10,3 -11,5 0 0 5 3 N 979,4 50 0,0
08.12.2019 11:00:00 -11,1 -12,3 0 0 5 3 N 979,3 50 0,0
08.12.2019 10:00:00 -10,9 -12,1 2 1 6 3 WNW 979,5 40 0,0
08.12.2019 09:00:00 -12,1 -13,4 0 0 5 3 N 979,9 50 0,0
08.12.2019 08:00:00 -13,6 -15,0 0 0 5 3 N 979,9 50 -
08.12.2019 07:00:00 -13,2 -14,6 3 1 6 3 W 979,7 50 0,0
08.12.2019 06:00:00 -12,0 -13,3 0 0 5 3 N 979,6 50 0,0
08.12.2019 05:00:00 -12,2 -13,6 0 0 4 2 N 979,8 50 0,0
08.12.2019 04:00:00 -12,2 -13,5 0 0 4 2 N 979,8 50 0,0
08.12.2019 03:00:00 -12,6 -14,0 0 0 3 2 N 980,0 50 0,0
08.12.2019 02:00:00 -12,5 -13,9 0 0 5 3 N 980,1 50 0,0
08.12.2019 01:00:00 -12,1 -13,5 0 0 3 2 N 980,0 7 0,1
08.12.2019 00:00:00 -12,2 -13,6 0 0 3 2 N 979,6 50 0,0
07.12.2019 23:00:00 -12,3 -13,7 0 0 2 1 N 979,7 50 0,0
07.12.2019 22:00:00 -12,4 -13,8 0 0 4 2 N 979,5 50 0,0
07.12.2019 21:00:00 -12,7 -14,1 2 1 4 2 NE 979,5 12 0,0
07.12.2019 20:00:00 -12,8 -14,1 2 1 4 2 NNE 979,5 1,2 -
07.12.2019 19:00:00 -13,4 -14,7 3 2 6 3 NE 979,5 - 0,0
07.12.2019 18:00:00 -14,1 -15,7 3 1 7 4 ENE 979,6 50 0,0
07.12.2019 17:00:00 -14,2 -15,6 4 2 6 4 NNE 979,6 50 0,0
07.12.2019 16:00:00 -14,3 -15,7 4 2 8 4 NE 979,8 50 0,1
07.12.2019 15:00:00 -13,8 -15,1 3 2 9 5 NE 979,9 38 0,0
07.12.2019 14:00:00 -13,9 -15,5 0 0 5 3 N 979,9 50 0,0
07.12.2019 13:00:00 -13,4 -15,0 2 1 4 2 E 979,9 50 0,0
07.12.2019 12:00:00 -12,5 -13,7 3 1 5 3 ESE 980,4 1,4 0,0
07.12.2019 11:00:00 -13,0 -14,4 3 2 5 3 ENE 980,6 50 0,0
07.12.2019 10:00:00 -13,5 -15,1 3 1 6 4 E 981,0 41 -
07.12.2019 09:00:00 -13,3 -14,7 3 1 6 3 NE 980,8 50 0,0
07.12.2019 08:00:00 -12,7 -14,0 4 2 6 3 NE 980,5 50 0,0
07.12.2019 07:00:00 -12,5 -13,7 4 2 6 4 NE 980,3 37 0,0
07.12.2019 06:00:00 -12,1 -13,0 5 3 8 4 NE 980,2 3,7 0,0
07.12.2019 05:00:00 -12,3 -13,5 6 3 8 5 NE 980,4 50 0,0
07.12.2019 04:00:00 -12,2 -13,4 5 3 8 5 NE 980,2 50 0,0
07.12.2019 03:00:00 -11,8 -13,1 3 1 9 5 ENE 980,2 50 0,1
07.12.2019 02:00:00 -11,4 -12,6 4 2 10 5 ENE 980,0 50 0,0
07.12.2019 01:00:00 -10,9 -11,9 4 2 9 5 NE 980,0 50 0,0
07.12.2019 00:00:00 -9,9 -10,7 0 0 10 5 N 979,8 40 0,0
06.12.2019 23:00:00 -8,3 -8,8 5 3 8 4 SSE 979,6 13 0,0
06.12.2019 22:00:00 -9,0 -10,6 3 2 7 4 ESE 979,6 50 0,0
06.12.2019 21:00:00 -6,8 -7,5 4 2 6 4 SSE 979,3 50 0,0
06.12.2019 20:00:00 -8,4 -8,9 4 2 6 4 E 979,2 50 0,0
06.12.2019 19:00:00 -8,5 -9,0 3 2 9 5 SSE 979,3 50 0,0
06.12.2019 18:00:00 -7,8 -8,5 5 3 9 5 S 979,2 50 0,0
06.12.2019 17:00:00 -7,2 -8,1 6 3 16 8 SSE 978,8 50 0,0
06.12.2019 16:00:00 -7,2 -7,7 8 4 14 7 S 978,7 50 0,0

tt = temperature
td = dewpoint
ff = wind speed
fx = gusts
dd = wind direction
ppp = reduced air pressure
vv = visibility
rr = precipitation

Next stations